FW9821 Weather Reports


time (UTC)temp
C
wind
direction
speed
KPH
gust
KPH
rain 1hr
cm
rain 24hr
cm
rain mn
cm
humidity
%
barometer
mb
20260507195019 8 3 9.7 14.5 0.00 0.00 0.05 87 1017.6
20260507194018 8 5 9.7 14.5 0.00 0.00 0.05 87 1017.6
20260507193026 9 358 9.7 14.5 0.00 0.00 0.05 86 1017.6
20260507192022 9 359 9.7 14.5 0.00 0.00 0.05 86 1017.6
20260507191031 9 36 9.7 22.5 0.00 0.00 0.05 85 1017.2
20260507185016 10 36 9.7 22.5 0.00 0.00 0.05 84 1017.2
20260507184018 10 36 9.7 22.5 0.00 0.00 0.05 82 1017.2
20260507183032 10 28 9.7 24.1 0.00 0.00 0.05 82 1017.2
20260507181022 10 35 14.5 24.1 0.00 0.00 0.05 80 1016.7
20260507175017 10 28 14.5 22.5 0.00 0.00 0.05 79 1016.7
20260507174025 10 33 14.5 24.1 0.00 0.00 0.05 78 1016.7
20260507173022 11 32 14.5 24.1 0.00 0.00 0.05 77 1016.7
20260507171031 11 21 12.9 27.4 0.00 0.00 0.05 77 1016.5
20260507165030 11 16 12.9 29.0 0.00 0.00 0.05 77 1016.5
20260507164019 11 26 12.9 27.4 0.00 0.00 0.05 77 1016.5
20260507163031 11 19 12.9 27.4 0.00 0.00 0.05 77 1016.5
20260507162023 11 20 12.9 29.0 0.00 0.00 0.05 75 1016.5
20260507161028 11 29 14.5 25.7 0.00 0.00 0.05 75 1016.0
20260507160019 12 24 14.5 25.7 0.00 0.00 0.05 75 1016.0
20260507155030 11 31 14.5 25.7 0.00 0.00 0.05 75 1016.0
20260507154022 12 27 14.5 25.7 0.00 0.00 0.05 75 1016.0
20260507153021 12 32 14.5 25.7 0.00 0.00 0.05 75 1016.0
20260507152021 12 28 14.5 25.7 0.00 0.00 0.05 75 1016.0
20260507151017 12 35 14.5 27.4 0.00 0.00 0.05 74 1015.7
20260507145028 12 28 14.5 27.4 0.00 0.00 0.05 75 1015.7
20260507143025 12 36 14.5 25.7 0.00 0.00 0.05 76 1015.7
20260507135018 11 26 12.9 27.4 0.00 0.00 0.05 78 1015.5
20260507134027 11 17 14.5 29.0 0.00 0.00 0.05 79 1015.5
20260507133026 10 21 12.9 27.4 0.00 0.00 0.05 80 1015.5
20260507132020 10 18 12.9 25.7 0.00 0.00 0.05 80 1015.5
20260507131026 10 49 11.3 25.7 0.00 0.00 0.05 81 1015.2
20260507130024 10 55 12.9 25.7 0.00 0.00 0.05 81 1015.2
20260507125017 10 54 12.9 27.4 0.00 0.00 0.05 81 1015.2
20260507124016 10 54 12.9 27.4 0.00 0.00 0.05 82 1015.2
20260507123018 10 56 12.9 25.7 0.00 0.00 0.05 82 1015.2
20260507122026 10 50 12.9 25.7 0.00 0.00 0.05 82 1015.2
20260507121018 10 64 14.5 25.7 0.00 0.00 0.05 82 1015.1
20260507115017 9 56 12.9 25.7 0.00 0.00 0.05 82 1015.1
20260507114028 9 54 12.9 24.1 0.00 0.00 0.05 82 1015.1
20260507113020 9 59 12.9 24.1 0.00 0.00 0.05 82 1015.1
20260507112018 9 66 14.5 25.7 0.00 0.00 0.05 83 1015.1
20260507111018 8 43 14.5 30.6 0.00 0.00 0.05 83 1014.7
20260507110026 8 41 16.1 30.6 0.00 0.00 0.05 83 1014.7
20260507105015 8 35 14.5 30.6 0.00 0.00 0.05 84 1014.7
20260507103017 8 38 19.3 33.8 0.00 0.00 0.05 84 1014.5
20260507102022 8 37 19.3 32.2 0.00 0.00 0.05 84 1014.5
20260507095029 8 45 19.3 32.2 0.00 0.00 0.05 85 1014.5
20260507094026 8 41 19.3 32.2 0.00 0.00 0.05 86 1014.5
20260507093022 8 41 17.7 30.6 0.00 0.00 0.05 86 1014.5
20260507092021 8 45 19.3 33.8 0.00 0.00 0.05 86 1014.5
20260507091023 8 45 14.5 30.6 0.00 0.00 0.05 87 1013.9
20260507090017 8 37 14.5 30.6 0.00 0.00 0.05 88 1013.9
20260507085016 8 45 14.5 30.6 0.00 0.00 0.05 88 1013.9
20260507084016 8 38 14.5 30.6 0.00 0.00 0.05 89 1013.9
20260507083022 7 41 14.5 29.0 0.00 0.00 0.05 89 1013.9
20260507082029 7 36 12.9 27.4 0.00 0.00 0.05 88 1013.9
20260507080020 7 36 16.1 29.0 0.00 0.00 0.05 89 1013.5
20260507075027 7 34 16.1 30.6 0.00 0.00 0.05 89 1013.5
20260507074018 7 27 16.1 30.6 0.00 0.00 0.05 89 1013.5
20260507073024 8 24 16.1 29.0 0.00 0.00 0.05 89 1013.5
20260507071018 7 37 14.5 27.4 0.00 0.00 0.05 90 1012.7
20260507070025 7 43 14.5 30.6 0.00 0.00 0.05 90 1012.7
20260507065019 7 44 14.5 29.0 0.00 0.00 0.05 89 1012.7
20260507064016 7 34 12.9 27.4 0.00 0.00 0.05 90 1012.7
20260507063019 7 39 12.9 27.4 0.00 0.00 0.05 90 1012.7
20260507062017 7 36 14.5 29.0 0.00 0.00 0.05 91 1012.7
20260507061028 7 44 14.5 22.5 0.00 0.00 0.05 91 1012.3
20260507060017 7 46 14.5 22.5 0.00 0.00 0.05 91 1012.3
20260507054018 7 52 14.5 24.1 0.00 0.00 0.05 92 1012.3
20260507053023 7 53 14.5 22.5 0.00 0.00 0.05 92 1012.3
20260507051025 7 36 12.9 17.7 0.00 0.00 0.05 93 1011.8
20260507050024 7 28 12.9 19.3 0.00 0.00 0.05 93 1011.8
20260507045024 7 24 12.9 19.3 0.00 0.00 0.05 93 1011.8
20260507044028 7 28 12.9 17.7 0.00 0.00 0.05 93 1011.8
20260507042030 7 26 12.9 17.7 0.00 0.00 0.05 93 1011.8
20260507041029 7 14 8.0 17.7 0.03 0.00 0.05 93 1011.5
20260507040020 6 18 9.7 19.3 0.05 0.00 0.05 93 1011.5
20260507035018 6 20 9.7 19.3 0.05 0.00 0.05 93 1011.5
20260507034026 7 24 8.0 17.7 0.05 0.00 0.05 93 1011.5
20260507033015 7 17 8.0 17.7 0.05 0.00 0.05 93 1011.5
20260507032025 7 17 8.0 17.7 0.05 0.00 0.05 93 1011.5
20260507031022 7 40 9.7 19.3 0.03 0.00 0.03 93 1011.2
20260507025027 7 34 9.7 19.3 0.00 0.00 0.00 93 1011.2
20260507024013 7 42 9.7 19.3 0.00 0.00 0.00 93 1011.2
20260507023027 7 46 11.3 20.9 0.00 0.00 0.00 93 1011.2
20260507022027 7 43 9.7 19.3 0.00 0.00 0.00 93 1011.2
20260507021014 7 46 11.3 20.9 0.00 0.00 0.00 93 1010.6
20260507015022 7 41 12.9 22.5 0.00 0.00 0.00 93 1010.6
20260507014013 7 40 12.9 22.5 0.00 0.00 0.00 92 1010.6
20260507013028 7 43 12.9 20.9 0.00 0.00 0.00 92 1010.6
20260507012017 7 34 12.9 22.5 0.00 0.00 0.00 92 1010.6
20260507011021 7 33 12.9 22.5 0.00 0.00 0.00 92 1010.7
20260507005021 7 32 12.9 22.5 0.00 0.00 0.00 92 1010.7
20260507004016 7 27 12.9 20.9 0.00 0.00 0.00 93 1010.7
20260507003024 6 35 12.9 22.5 0.00 0.00 0.00 92 1010.7
20260507002021 7 28 12.9 22.5 0.00 0.00 0.00 92 1010.7
20260507001015 6 36 14.5 27.4 0.00 0.00 0.00 92 1010.4
20260506233032 7 28 14.5 25.7 0.00 0.00 1.80 93 1010.4
20260506232031 7 32 16.1 29.0 0.00 0.00 1.80 93 1010.4
20260506231018 7 35 14.5 32.2 0.00 0.00 1.80 92 1010.3
20260506225021 7 30 14.5 30.6 0.00 0.00 1.80 92 1010.3
20260506223026 7 32 17.7 32.2 0.00 0.00 1.80 92 1010.0
20260506222028 7 30 17.7 29.0 0.00 0.00 1.80 92 1010.0
20260506221026 7 27 17.7 30.6 0.00 0.00 1.80 93 1010.0
20260506220028 7 27 17.7 30.6 0.00 0.00 1.80 93 1010.0
20260506215028 7 28 17.7 30.6 0.00 0.00 1.80 93 1010.0
20260506214025 7 33 17.7 32.2 0.00 0.00 1.80 92 1010.0
20260506213029 8 24 17.7 29.0 0.00 0.00 1.80 92 1010.0
20260506211018 8 19 17.7 30.6 0.00 0.00 1.80 92 1009.1
20260506205018 9 18 17.7 30.6 0.00 0.00 1.80 93 1009.1
20260506204025 10 22 16.1 27.4 0.00 0.00 1.80 93 1009.1
20260506203025 10 26 16.1 27.4 0.00 0.00 1.80 94 1009.1
20260506202028 10 19 17.7 30.6 0.00 0.00 1.80 94 1009.1
20260506201016 10 6 12.9 22.5 0.00 0.00 1.80 94 1008.7